User: anonymous   Login
Location: Unspecified
(0.0000°N, 0.0000°E)
Time: 12:12:41
(UTC+00:00)
Language:

TET - Orbit

View from above orbital plane
View from above orbital plane
View from above satellite
View from above satellite

Ground track
Ground track

The orbit data is extracted from the following two-line orbital elements,

1 38710U 12039D   18289.12489739  .00003887  00000-0  75560-4 0  9998
2 38710  97.6040 272.5142 0000647 142.2559 217.8736 15.48278429349364
Epoch (UTC): 16 October 2018 02:59:51
Eccentricity: 0.0000647
inclination: 97.6040°
perigee height: 421 km
apogee height: 422 km
right ascension of ascending node: 272.5142°
argument of perigee: 142.2559°
revolutions per day: 15.48278429
mean anomaly at epoch: 217.8736°
orbit number at epoch: 34936

The dashed part of the orbit path shows where the satellite is in the earth's shadow,  

DLR